Location: Narrabri
(30.3170°S, 149.7830°E)
Time: 17:13:55
(UTC+11:00)

Hubble Space Telescope - Visible Passes

Search period start: 25 March 2019 00:00
Search period end: 04 April 2019 00:00
Orbit: 537 x 540 km, 28.5° (Epoch: 24 March)

Date Brightness Start Highest point End Pass type
(mag) Time Alt. Az. Time Alt. Az. Time Alt. Az.
26 Mar 3.6 06:10:56 10° NNE 06:11:30 10° NNE 06:12:03 10° NE visible
27 Mar 3.3 05:58:51 10° N 06:00:55 13° NNE 06:02:59 10° NE visible
28 Mar 3.1 05:47:56 11° NNW 05:50:20 17° NNE 05:53:05 10° ENE visible
29 Mar 2.7 05:38:20 18° N 05:39:47 21° NNE 05:42:58 10° ENE visible
30 Mar 2.3 05:28:41 25° N 05:29:14 26° NNE 05:32:43 10° ENE visible
31 Mar 2.1 05:18:58 31° NNE 05:18:58 31° NNE 05:22:24 10° E visible
01 Apr 2.3 05:09:12 32° NE 05:09:12 32° NE 05:12:02 10° E visible
01 Apr 1.0 06:45:03 10° WNW 06:49:12 67° N 06:53:20 10° E visible
02 Apr 2.7 04:59:24 27° ENE 04:59:24 27° ENE 05:01:37 10° E visible
02 Apr 0.9 06:34:45 11° W 06:38:42 69° N 06:42:52 10° E visible
03 Apr 3.1 04:49:36 22° E 04:49:36 22° E 04:51:11 10° E visible
03 Apr 0.9 06:24:56 16° W 06:28:14 69° N 06:32:23 10° E visible
